FENGYUN 1C DEB, 29881

Orbit data source: Space-Track

FENGYUN 1C DEB, 29881 is space debris in SSO originally from a launch on Mon, 10 May 1999 UTC launched from the Taiyaun Space Center, China (TSC). Fengyun 1C debris stems from the Chinese weather satellite Fengyun-1C, which was intentionally destroyed by a Chinese anti-satellite missile in 2007. This event dramatically increased the amount of space debris, with thousands of trackable fragments posing hazards to satellites and human spaceflight. The Fengyun 1C debris cloud has become a focal point in discussions about space sustainability and the need for international regulations to prevent the creation of new debris.

Loading next visibility...
Identifier
29881, 1999-025GB
Orbit
SSO
Country
Flag of CNCN / PRC
Related business
Manufacturer
Unknown
Mission
Spacecraft
Bus & Motor
Unknown
Mass
Unknown
Launch date (UTC)
1999-05-10 (27 years ago)
Launch vehicle
Unknown
Launch site
Taiyaun Space Center, China (TSC)
Object type
Payload
Rocket body
Debris
Shape & HBR
Unknown shape, 1.1 m
Radar Cross Section
Small (<0.1 m²)

Expand to show TLE details & history
Last TLE update: 10 hours ago

TLE from 10 hours ago
0 FENGYUN 1C DEB
1 29881U 99025GB  25353.84718711  .00001833  00000-0  18987-2 0  9998
2 29881  98.7224 325.2597 0293013  53.2496  16.8920 13.59645098933317
Epoch: 2025-12-19T20:19Z
TLE epoch observation values (Epoch: 2025-12-19T20:19:56.966Z)
Latitude
69.37812°
Longitude
-92.33453°
Altitude
841.557 km
Speed
7.542 km/s
True Right ascension
20h 05m 20s
True Declination
69° 15' 57"
Sunlit
Object was in daylight at epoch
Visualization orbit readout
Latitude
Unknown
Longitude
Unknown
Altitude
Unknown
Speed
Unknown
Apparent Right ascension
Unknown
Apparent Declination
Unknown
Sunlit
N/A
Visualization observer readout
Local Sidereal Time
04:48:08
Azimuth
Unknown
Elevation
Unknown
Doppler factor
Unknown
Orbital elements
Apogee altitude
1,251.411 km
Perigee altitude
817.027 km
Semi-major axis
7,412.356 km
Eccentricity
0.0293
Inclination
98.7224°
RAAN
325.2597°
Arg. of periapsis
53.2496°
True anomaly
17.90296°
Mean anomaly
16.892°
Eccentric anomaly
17.39387°
Mean motion
3.40102 °/min
Orbital period
105.85 mins
BSTAR
0.0018987
Loading maneuver chart data...
Computing Atmospheric mass density...

Documentation

Showing up to 5 results
|